COSMOS 1289

Satellite information

Favourite Embed

Satellite Type and Status

PAYLOADIN ORBIT

Key statistics

Satellite COSMOS 1289 at a glance.

Uptime

16206

Days in orbit

Revolutions

≈ 12.5

Per day

Orbit

LEO

Low Earth Orbit

Inclination

74.0

Latest

Satellite identification and parameters

Extended collection of information and parameters for COSMOS 1289.

Object identification

Identified? True

Debris? False

Object name: COSMOS 1289

International designator: 1981-074C

Object number (NORAD): 12638

Object ID (CCSDS): 12638

Country: COMMONWEALTH OF INDEPENDENT STATES (CIS)

Current information (Y/N): Y

RCS size: MEDIUM

Orbital parameters

Period: 114.767 minutes

Inclination: 74.0347 deg

SMA: 7822.945 km

Apoapsis: 1464.297 km

Periapsis: 1425.323 km

RAAN: 25.6744 deg

Eccentricy: 0.00249095

Argument of periapsis: 359.8743 deg

Mean anomaly: 168.7865 deg

Mean motion: 12.54721521 rev/day

Mean motion (dot): 0.00000006 rev/day2

B* drag term: 0.00013792839 1/REarth

Two-line elements (TLE)

Creation date: Dec. 18, 2025, 8:02 p.m.

Reference frame: TEME

Reference center: EARTH

Epoch: Dec. 18, 2025, 1:46 p.m. UTC

TLE line 0: 0 COSMOS 1289

TLE line 1: 1 12638U 81074C 25352.57409166 .00000006 00000-0 13793-3 0 9997

TLE line 2: 2 12638 74.0347 25.6744 0024910 359.8743 168.7865 12.54721521 32130

Live tracking on map

Real-time ground track for satellite COSMOS 1289.

In-orbit conjunctions

A list of the most updated potential collisions computed for object COSMOS 1289.

Target Orbit TCA Probability of collision Miss distance Type
COSMOS 2251 DEB LEO 2024-10-12 00:12:09 0.0003866052 914.0 (m) DEBRIS

Associated space launch

Military communications satellites

COSMOS 1289 was lifted into orbit during the mission ‘Kosmos-3M | Strela-1M 217-224’, on board a Kosmos-3M space rocket.

The launch took place on Aug. 6, 1981, 11:49 a.m. from 132/2.

For more information about the launch, click the button.

Launch to space Kosmos-3M | Strela-1M 217-224
Kosmos-3M | Strela-1M 217-224

Agency: N/A

Status: Launch Successful

Launch date: Aug. 6, 1981, 11:49 a.m. UTC

Rocket: Kosmos-3M

Launch pad: 132/2

Location: Plesetsk Cosmodrome, Russian Federation

...

Latest news about this satellite

There are no fresh news available about this satellite. Check back as we update our databases every day.


Newsletter sign-up

Weekly statistics, charts and insights to help you stay on top of the space industry.